Location: Rounton
(54.4000°N, 1.3500°W)
Time: 12:56:27
(UTC+00:00)

Transit 2A - Pass Details

Date: 01 December 2021
Orbit: 591 x 967 km, 66.7° (Epoch: 17 January)

Event Time Altitude Azimuth Distance (km) Brightness Sun altitude
Rises 00:20:32 0° 183° (S) 3,313 - -57.0°
Reaches altitude 10° 00:23:06 10° 173° (S) 2,446 - -57.0°
Maximum altitude 00:28:03 32° 112° (ESE) 1,495 - -56.8°
Drops below altitude 10° 00:33:24 10° 53° (NE) 2,648 - -56.6°
Exits shadow 00:36:04 - 44° (NE) 3,560 9.9 -56.5°
Sets 00:36:16 0° 44° (NE) 3,630 9.9 -56.5°
